Wind_Speed
59 59 59 59 59 58 57 57 57 56 56 56 57 57 58 59 60 61 63 64 64 65 66 66 67 67 68 68 67 67 67 67 68 69 69 68 69 70 71 72 73 73
61 61 61 61 61 61 61 61 60 60 60 60 60 60 60 61 62 63 64 66 67 68 69 69 70 70 70 69 69 68 68 68 69 71 71 71 71 72 73 74 74 74
64 64 64 64 64 64 64 64 64 64 63 64 64 63 63 63 64 65 66 68 69 70 71 71 72 72 72 71 71 70 70 70 71 72 72 73 73 74 75 76 76 76
67 68 68 68 67 67 68 68 68 68 67 67 67 66 66 66 66 67 68 70 71 72 72 72 73 73 74 73 72 71 71 72 73 74 74 74 75 76 78 78 78 78
71 71 72 72 72 72 72 73 73 72 72 71 70 69 68 68 69 70 71 72 73 73 73 73 73 74 75 74 74 73 73 73 74 75 76 76 77 78 79 80 80 80
74 74 75 75 75 76 77 77 77 77 76 76 75 73 72 72 72 73 74 75 75 75 75 75 75 75 75 75 75 75 75 75 76 77 78 79 79 80 80 81 82 82
77 77 77 78 78 80 81 81 81 80 80 80 79 78 77 77 77 77 76 77 77 77 77 77 77 77 76 77 77 77 78 78 78 79 80 80 81 82 82 83 83 84
79 80 80 80 81 83 84 84 84 84 83 82 82 81 81 81 81 81 80 79 80 80 80 79 78 78 79 80 80 80 80 80 80 81 82 82 83 83 84 84 85 85
82 82 82 83 85 86 86 87 87 87 86 85 85 85 85 85 85 84 83 82 82 83 83 82 81 82 83 84 83 82 81 81 82 82 83 84 85 85 85 86 86 87
85 85 85 86 88 89 89 89 90 89 88 88 88 88 88 88 87 86 86 85 85 85 85 85 86 87 86 85 84 82 82 82 83 84 84 85 86 86 87 87 88 88
88 88 88 89 90 91 92 92 91 91 91 91 91 91 91 90 90 90 89 88 87 87 87 89 90 90 88 86 84 83 83 84 85 86 86 87 87 88 89 89 89 90
90 90 90 90 91 93 94 93 93 93 93 93 93 93 93 93 93 93 92 90 90 90 91 92 92 91 89 87 86 85 85 85 87 88 88 89 90 90 91 91 92 92
93 93 92 91 92 94 95 95 95 95 95 96 96 96 96 96 96 95 94 93 94 95 95 94 93 92 90 89 88 87 87 87 88 89 90 91 92 92 93 93 94 94
95 95 93 92 93 95 97 98 98 97 97 98 98 97 97 97 97 97 97 98 98 98 97 95 94 93 92 90 89 88 88 89 90 91 92 93 94 95 95 95 96 96
96 96 96 95 95 97 99 100 100 99 99 99 99 98 98 98 99 100 101 101 100 98 97 96 94 94 93 92 91 90 90 90 91 93 94 95 96 96 97 97 98 98
98 98 98 98 97 98 100 101 101 101 100 100 100 100 100 101 101 101 101 100 99 98 97 96 95 95 94 93 93 92 92 92 93 94 95 96 97 97 98 98 98 98
100 100 100 100 100 100 100 101 102 102 102 102 103 103 103 102 102 101 100 100 99 98 97 96 96 95 95 94 94 93 94 94 95 95 96 97 97 98 98 98 98 98
103 102 102 102 103 102 102 102 103 104 104 104 104 104 104 103 102 101 100 100 99 98 97 96 96 95 95 94 94 94 94 95 95 96 96 97 97 98 98 97 97 97
106 106 105 105 106 106 105 105 105 105 105 105 104 104 103 103 103 102 101 100 99 98 97 96 95 94 94 93 93 93 94 94 95 95 96 96 97 97 97 97 97 97
109 109 109 109 109 108 108 107 107 107 107 106 105 105 104 103 102 101 100 99 98 96 94 93 92 91 91 90 90 90 91 91 92 93 94 94 95 96 96 97 98 99
110 110 110 110 110 110 109 109 109 108 108 107 106 105 104 103 101 99 98 97 95 93 91 90 89 88 87 87 87 87 88 89 90 91 93 93 95 96 97 98 99 100
110 110 110 110 110 110 110 110 109 108 107 106 104 103 101 99 97 96 94 93 92 90 89 88 87 87 87 86 87 88 89 90 91 93 94 95 97 98 100 100 101 102
110 110 110 109 109 109 108 107 106 104 103 101 99 98 97 96 95 93 92 90 89 89 88 87 88 88 88 89 90 91 92 94 95 96 98 99 100 101 102 102 103 103
109 108 107 107 106 105 104 103 101 100 98 97 96 95 95 94 93 92 91 90 90 90 90 90 90 90 91 92 93 94 95 96 98 99 100 100 101 102 102 103 103 103
104 103 103 101 100 100 99 98 97 97 96 95 95 94 94 94 94 93 93 93 94 94 94 93 93 94 94 95 95 96 97 98 99 100 100 101 102 103 103 103 104 104
98 98 97 97 97 96 96 96 96 96 96 96 96 96 96 96 96 97 97 97 98 98 98 97 97 97 97 98 99 100 100 101 102 102 103 104 104 105 105 105 105 105
Wind_Direction
295 295 296 297 298 298 299 300 300 300 299 298 298 298 298 299 299 300 300 301 301 301 300 300 300 300 300 300 300 300 299 298 298 298 298 299 299 298 298 298 298 298
294 295 295 296 297 298 299 299 299 298 298 297 296 297 297 298 299 300 300 301 301 301 300 300 300 300 300 300 300 299 298 297 297 297 298 298 298 298 298 298 298 298
294 295 295 296 297 298 298 298 297 296 296 295 295 296 297 298 299 299 300 300 300 300 299 299 299 300 300 300 299 298 297 296 296 296 297 297 297 297 297 297 298 298
294 295 295 296 297 297 297 296 296 295 295 295 295 296 297 298 299 299 299 299 298 298 298 298 299 299 299 299 299 298 297 296 296 296 296 297 296 297 297 297 298 297
294 294 294 295 296 296 296 295 295 295 295 295 296 297 298 299 299 298 298 298 297 297 297 297 298 298 299 299 298 298 296 296 295 295 296 296 296 296 297 297 297 296
292 293 293 294 295 295 295 295 295 295 295 296 297 298 299 298 298 297 297 297 297 297 297 297 298 298 298 298 298 297 296 296 295 295 296 296 296 296 296 296 296 296
291 292 293 294 294 294 293 294 294 294 295 297 298 298 298 297 297 297 297 296 297 297 297 297 297 297 297 298 298 297 296 295 295 295 295 295 295 295 295 295 295 295
291 292 292 293 292 292 292 293 293 294 295 296 297 297 297 297 296 297 297 297 297 297 296 296 296 296 297 297 297 297 296 295 295 294 294 294 294 294 294 294 294 294
290 291 291 291 291 291 291 292 292 293 294 295 295 296 296 296 296 297 297 297 297 296 296 296 296 297 298 298 297 296 296 295 294 294 294 294 294 293 294 294 294 294
289 289 290 290 290 290 291 291 292 293 294 294 295 295 295 296 296 296 296 296 296 295 295 296 297 298 298 298 297 296 295 294 294 294 293 293 293 293 293 293 293 293
287 288 288 288 289 290 290 291 292 292 293 294 294 295 295 295 295 295 296 295 295 295 295 296 298 298 299 298 297 296 295 294 293 293 293 293 293 293 293 293 293 293
285 286 287 288 289 289 290 291 291 292 293 293 294 294 294 295 295 295 295 295 295 296 296 297 298 299 298 298 297 296 294 293 293 292 292 293 293 293 293 293 292 292
285 286 287 288 288 289 289 290 290 291 292 292 293 293 293 294 294 294 295 295 296 297 297 298 298 298 297 296 296 295 293 292 291 291 291 292 292 292 292 292 292 292
285 286 287 287 288 288 288 289 289 290 291 292 292 292 293 293 294 294 295 296 297 297 298 298 297 297 296 295 294 293 292 290 290 289 290 290 291 292 292 292 292 292
284 285 286 286 286 287 288 288 289 290 291 291 291 291 292 293 294 295 295 296 297 297 297 297 296 296 295 294 293 292 290 289 289 289 289 289 290 290 291 291 291 292
283 284 285 285 286 286 287 288 289 290 290 290 291 291 292 293 293 294 295 295 295 295 295 295 295 294 293 292 291 290 289 288 288 288 288 288 289 289 289 290 290 291
283 284 284 285 285 285 286 286 287 288 289 289 290 291 291 292 293 293 293 293 293 293 293 293 293 292 292 291 290 289 288 287 287 287 287 288 288 288 289 289 290 290
283 283 284 284 284 284 285 285 286 287 287 288 289 290 290 291 291 291 291 291 291 291 291 291 291 291 290 289 288 288 287 287 287 287 287 288 288 288 289 289 289 289
283 283 283 284 284 285 285 286 286 287 287 288 288 289 289 289 289 289 290 290 290 290 290 290 290 289 288 288 287 287 287 287 287 287 287 288 288 288 288 288 288 289
283 283 284 284 285 285 286 286 287 287 287 287 287 287 287 287 288 288 288 288 289 289 289 289 288 287 287 287 286 286 286 287 287 287 287 287 287 287 288 288 288 289
282 283 284 284 285 285 286 286 286 286 287 287 287 287 287 287 287 287 287 287 288 288 288 287 287 286 286 286 286 286 286 285 286 286 286 286 286 287 287 288 288 289
281 282 283 283 284 284 285 285 286 286 286 286 286 286 286 286 286 286 286 286 286 286 286 286 286 285 285 285 284 284 284 284 285 285 285 286 286 286 287 287 288 288
281 281 281 282 282 283 283 284 284 285 285 285 285 285 285 285 285 285 285 285 285 285 285 285 285 284 284 284 284 284 284 285 285 285 285 286 286 286 287 287 287 288
280 280 281 281 281 282 282 282 283 283 283 283 284 284 284 284 284 284 284 284 284 284 284 284 284 284 284 284 284 284 284 285 285 285 285 285 286 286 286 286 287 287
278 279 279 280 280 280 281 281 282 282 282 283 283 283 283 283 283 283 282 282 282 282 282 282 282 283 283 283 283 283 284 284 284 285 285 285 285 286 286 287 287 288
277 278 278 279 279 280 280 280 281 281 281 281 281 281 281 281 281 281 281 281 281 281 281 281 281 281 282 282 282 283 283 284 284 285 285 285 285 286 286 287 287 288
Height
10715 10712 10710 10708 10706 10704 10704 10702 10701 10699 10697 10696 10694 10692 10691 10689 10687 10685 10683 10681 10679 10675 10672 10669 10667 10664 10662 10659 10657 10654 10651 10647 10644 10640 10639 10637 10634 10630 10627 10624 10621 10619
10708 10706 10704 10702 10700 10698 10696 10695 10693 10692 10690 10689 10687 10686 10685 10683 10681 10679 10676 10674 10671 10668 10665 10662 10659 10656 10653 10651 10649 10646 10643 10640 10636 10632 10630 10629 10625 10622 10619 10616 10613 10611
10701 10699 10697 10695 10693 10691 10689 10687 10686 10685 10683 10682 10680 10679 10678 10677 10675 10672 10669 10666 10663 10661 10658 10654 10651 10647 10645 10643 10640 10638 10635 10632 10628 10624 10623 10620 10616 10614 10610 10607 10605 10602
10693 10691 10689 10687 10686 10684 10682 10679 10678 10677 10676 10674 10673 10673 10671 10670 10668 10666 10662 10659 10655 10652 10650 10647 10643 10639 10636 10634 10631 10629 10626 10623 10619 10616 10615 10612 10608 10605 10601 10598 10596 10592
10684 10683 10681 10679 10678 10676 10673 10671 10669 10668 10667 10666 10666 10665 10664 10662 10660 10657 10654 10651 10647 10644 10641 10638 10635 10632 10628 10625 10623 10620 10617 10614 10611 10608 10606 10603 10600 10597 10593 10589 10586 10583
10677 10675 10673 10671 10669 10666 10663 10661 10660 10659 10658 10657 10656 10655 10655 10653 10651 10649 10646 10642 10639 10636 10633 10630 10627 10624 10621 10618 10615 10612 10609 10606 10603 10599 10597 10594 10590 10588 10584 10580 10577 10573
10669 10667 10665 10663 10660 10657 10653 10652 10651 10650 10649 10648 10646 10645 10644 10643 10641 10639 10637 10633 10629 10627 10625 10622 10619 10616 10613 10610 10607 10603 10600 10597 10594 10591 10588 10585 10581 10578 10574 10570 10567 10564
10660 10658 10657 10655 10651 10647 10645 10643 10642 10641 10640 10639 10637 10635 10634 10632 10630 10629 10627 10624 10620 10617 10615 10613 10610 10607 10604 10601 10598 10594 10591 10588 10585 10582 10578 10575 10571 10568 10564 10560 10557 10554
10651 10650 10648 10646 10641 10638 10636 10634 10632 10631 10631 10630 10628 10626 10624 10622 10620 10618 10617 10615 10611 10607 10604 10602 10600 10598 10595 10592 10588 10584 10581 10578 10575 10572 10568 10564 10561 10557 10554 10550 10547 10543
10642 10641 10640 10637 10632 10629 10627 10624 10622 10621 10621 10620 10618 10616 10614 10611 10609 10608 10606 10604 10601 10597 10594 10591 10589 10587 10584 10581 10577 10574 10570 10567 10564 10561 10557 10554 10550 10547 10543 10539 10536 10533
10633 10632 10630 10627 10623 10619 10617 10615 10613 10611 10610 10609 10607 10605 10603 10600 10598 10596 10595 10593 10590 10587 10584 10580 10577 10574 10572 10569 10565 10563 10559 10556 10552 10548 10545 10542 10539 10535 10532 10528 10525 10522
10624 10622 10622 10620 10615 10610 10607 10605 10603 10601 10600 10598 10596 10594 10592 10589 10586 10584 10583 10581 10578 10575 10573 10569 10565 10562 10559 10556 10553 10551 10548 10545 10541 10537 10534 10531 10528 10524 10521 10517 10514 10511
10614 10613 10613 10613 10607 10601 10597 10595 10593 10591 10590 10587 10585 10583 10580 10577 10574 10572 10570 10568 10565 10563 10560 10557 10554 10551 10547 10545 10542 10539 10537 10534 10530 10527 10523 10520 10517 10513 10510 10506 10503 10499
10604 10603 10604 10604 10600 10593 10587 10584 10583 10582 10579 10576 10573 10571 10568 10565 10562 10559 10557 10555 10553 10550 10548 10545 10542 10538 10535 10533 10531 10528 10525 10522 10519 10516 10513 10510 10506 10503 10499 10495 10491 10488
10596 10594 10593 10593 10591 10585 10578 10573 10572 10571 10569 10566 10562 10559 10557 10555 10551 10548 10545 10542 10540 10538 10535 10532 10529 10526 10523 10521 10519 10516 10514 10511 10508 10505 10502 10499 10495 10492 10487 10483 10479 10476
10587 10585 10583 10582 10581 10577 10570 10564 10560 10559 10558 10554 10551 10549 10546 10544 10542 10538 10534 10531 10528 10526 10523 10521 10518 10514 10512 10509 10506 10504 10501 10499 10496 10493 10491 10488 10484 10480 10476 10472 10468 10464
10575 10574 10572 10570 10568 10566 10562 10557 10552 10549 10546 10543 10541 10538 10536 10534 10532 10528 10524 10521 10518 10515 10513 10510 10506 10503 10501 10498 10495 10492 10489 10486 10484 10481 10479 10476 10472 10468 10465 10461 10457 10453
10562 10561 10560 10557 10554 10552 10551 10548 10544 10540 10536 10533 10530 10528 10526 10524 10521 10517 10514 10510 10507 10505 10502 10499 10495 10492 10489 10486 10484 10481 10478 10475 10472 10469 10466 10463 10459 10456 10452 10449 10445 10441
10547 10547 10546 10543 10541 10539 10537 10536 10533 10529 10525 10522 10519 10517 10515 10513 10510 10506 10503 10499 10496 10494 10491 10488 10484 10480 10477 10475 10472 10469 10466 10463 10460 10457 10454 10450 10447 10443 10440 10436 10433 10429
10534 10532 10530 10528 10526 10525 10523 10522 10519 10516 10513 10510 10508 10505 10503 10501 10498 10496 10492 10489 10486 10483 10481 10477 10473 10469 10466 10464 10461 10458 10455 10452 10449 10446 10442 10439 10435 10432 10428 10425 10421 10417
10522 10519 10517 10515 10512 10510 10509 10507 10505 10503 10501 10498 10496 10493 10491 10488 10486 10484 10481 10478 10475 10472 10469 10466 10462 10458 10456 10453 10450 10447 10444 10441 10438 10434 10431 10428 10424 10420 10417 10413 10410 10406
10510 10508 10506 10503 10500 10498 10496 10493 10491 10489 10487 10484 10482 10480 10478 10476 10474 10472 10469 10467 10464 10461 10458 10455 10451 10447 10445 10442 10439 10435 10432 10430 10426 10423 10420 10416 10412 10408 10404 10401 10398 10394
10496 10495 10493 10491 10488 10486 10483 10481 10478 10476 10474 10471 10469 10467 10465 10463 10461 10459 10457 10455 10452 10449 10446 10444 10440 10436 10433 10430 10427 10424 10421 10417 10414 10411 10407 10404 10400 10396 10392 10389 10386 10382
10481 10480 10478 10476 10475 10473 10470 10468 10466 10464 10462 10459 10457 10455 10453 10450 10449 10447 10445 10443 10439 10436 10434 10432 10428 10425 10422 10418 10415 10412 10409 10405 10401 10398 10395 10391 10387 10383 10379 10376 10373 10370
10468 10466 10465 10463 10461 10459 10457 10455 10454 10451 10449 10448 10446 10444 10441 10439 10437 10435 10433 10430 10427 10424 10422 10419 10416 10413 10409 10406 10402 10399 10396 10392 10389 10385 10382 10378 10374 10370 10367 10363 10360 10356
10456 10454 10452 10450 10448 10446 10444 10442 10441 10439 10437 10435 10433 10431 10429 10426 10424 10422 10420 10417 10414 10411 10409 10406 10404 10400 10397 10393 10389 10385 10382 10378 10375 10372 10368 10364 10360 10357 10354 10351 10348 10343